SCP
0 0 0 0 0 0 0 0 0 0 0 0 0 0 0 0 0 0 0 0 0 0 0 0 0 0 0 0 0 0 0 0 0 0 0 0 0 0
0 0 0 0 0 0 0 0 0 0 0 0 0 0 0 0 0 0 0 0 0 0 0 0 0 0 0 0 0 0 0 0 0 0 0 0 0 0
0 0 0 0 0 0 0 0 0 0 0 0 0 0 0 0 0 0 0 0 0 0 0 0 0 0 0 0 0 0 0 0 0 0 0 0 0 0
0 0 0 0 0 0 0 0 0 0 0 0 0 0 0 0 0 0 0 0 0 0 0 0 0 0 0 0 0 0 0 0 0 0 0 0 0 0
0 0 0 0 0 0 0 0 0 0 0 0 0 0 0 0 0 0 0 0 0 0 0 0 0 0 0 0 0 0 0 0 0 0 0 0 0 0
0 0 0 0 0 0 0 0 0 0 0 0 0 0 0 0 0 0 0 0 0 0 0 0 0 0 0 0 0 0 0 0 0 0 0 0 0 0
0 0 0 0 0 0 0 0 0 0 0 0 0 0 0 0 0 0 0 0 0 0 0 0 0 0 0 0 0 0 0 0 0 0 0 0 0 0
0 0 0 0 0 0 0 0 0 0 0 0 0 0 0 0 0 0 0 0 0 0 0 0 0 0 0 0 0 0 0 0 0 0 0 0 0 0
0 0 0 0 0 0 0 0 0 0 0 0 0 0 0 0 0 0 0 0 0 0 0 0 0 0 0 0 0 0 0 0 0 0 0 0 0 0
0 0 0 0 0 0 0 0 0 0 0 0 0 0 0 0 0 0 0 0 0 0 0 0 0 0 0 0 0 0 0 0 0 0 0 0 0 0
0 0 0 0 0 0 0 0 0 0 0 0 0 0 0 0 0 0 0 0 0 0 0 0 0 0 0 0 0 0 0 0 0 0 0 0 0 0
0 0 0 0 0 0 0 0 0 0 0 0 0 0 0 0 0 0 0 0 0 0 0 0 0 0 0 0 0 0 0 0 0 0 0 0 0 0
0 0 0 0 0 0 0 0 0 0 0 0 0 0 0 0 0 0 0 0 0 0 0 0 0 0 0 0 0 0 0 0 0 0 0 0 0 0
0 0 0 0 0 0 0 0 0 0 0 0 0 0 0 0 0 0 0 0 0 0 0 0 0 0 0 0 0 0 0 0 0 0 0 0 0 0
0 0 0 0 0 0 0 0 0 0 0 0 0 0 0 0 0 0 0 0 0 0 0 0 0 0 0 0 0 0 0 0 0 0 0 0 0 0
0 0 0 0 0 0 0 0 0 0 0 0 0 0 0 0 0 0 0 0 0 0 0 0 0 0 0 0 0 0 0 0 0 0 0 0 0 0
0 0 0 0 0 0 0 0 0 0 0 0 0 0 0 0 0 0 0 0 0 0 0 0 0 0 0 0 0 0 0 0 0 0 0 0 0 0
0 0 0 0 0 0 0 0 0 0 0 0 0 0 0 0 0 0 0 0 0 0 0 0 0 0 0 0 0 0 0 0 0 0 0 0 0 0
0 0 0 0 0 0 0 0 0 0 0 0 0 0 0 0 0 0 0 0 0 0 0 0 0 0 0 0 0 0 0 0 0 0 0 0 0 0
0 0 0 0 0 0 0 0 0 0 0 0 0 0 0 0 0 0 0 0 0 0 0 0 0 0 0 0 0 0 0 0 0 0 0 0 0 0
0 0 0 0 0 0 0 0 0 0 0 0 0 0 0 0 0 0 0 0 0 0 0 0 0 0 0 0 0 0 0 0 0 0 0 0 0 0
0 0 0 0 0 0 0 0 0 0 0 0 0 0 0 0 0 0 0 0 0 0 0 0 0 0 0 0 0 0 0 0 0 0 0 0 0 0
0 0 0 0 0 0 0 0 0 0 0 0 0 0 0 0 0 0 0 0 0 0 0 0 0 0 0 0 0 0 0 0 0 0 0 0 0 0
Wind_Speed
3 3 2 2 3 3 4 4 5 3 2 2 1 0 1 1 2 2 2 5 6 6 7 7 8 8 8 8 8 9 10 9 10 10 10 10 10 11
3 3 3 2 3 3 3 3 3 4 3 2 2 2 2 3 3 2 2 5 6 6 6 7 7 7 7 8 8 8 9 9 9 9 9 10 10 10
3 4 4 3 3 3 3 3 3 3 4 1 1 1 2 2 2 2 2 2 2 5 5 6 7 7 7 7 8 8 9 9 9 9 9 9 9 10
5 4 4 4 4 3 3 4 3 3 4 4 2 2 2 3 2 2 2 2 1 4 5 5 5 6 6 7 7 8 8 8 9 9 8 8 8 9
5 5 5 5 5 3 4 4 3 4 3 5 3 1 1 2 2 1 2 1 1 2 3 3 4 4 5 5 5 6 6 7 7 8 8 9 9 8
5 5 5 7 7 6 5 5 5 4 4 5 4 2 2 2 2 2 1 0 0 1 1 2 2 3 3 3 4 4 4 5 5 6 7 7 8 8
3 4 5 7 8 7 6 6 6 5 5 4 4 2 2 3 3 2 2 1 1 0 0 1 1 1 1 1 1 2 3 3 4 4 5 5 6 7
4 4 4 5 8 9 10 11 11 9 7 5 4 5 4 4 3 3 3 2 1 1 1 0 0 1 1 1 0 1 1 1 1 2 3 3 4 5
5 4 4 4 5 5 7 10 10 11 12 9 7 7 6 6 6 5 4 3 3 2 2 1 1 1 2 1 2 2 1 1 1 1 1 2 2 3
5 5 5 5 6 6 6 5 4 5 7 6 6 6 6 6 7 6 5 3 1 1 3 2 1 2 2 1 2 2 1 1 1 0 0 1 1 2
4 5 6 6 9 10 8 6 5 3 4 6 6 6 7 9 8 5 4 4 2 2 2 2 2 1 1 1 2 2 1 1 1 1 1 0 1 1
2 4 7 8 10 12 8 8 7 5 4 4 3 4 4 6 9 7 6 5 3 2 2 3 2 2 1 1 1 1 1 2 2 2 2 1 0 1
3 3 4 9 11 13 11 8 9 7 5 5 4 3 2 3 4 4 4 5 4 3 3 3 2 2 2 1 1 1 1 1 1 2 2 2 1 1
5 4 5 9 10 11 9 8 10 8 4 4 3 3 3 3 3 3 4 3 3 3 5 5 3 3 3 2 2 1 1 1 1 1 1 2 2 2
3 5 7 9 9 8 9 10 9 5 5 4 4 4 3 3 3 2 2 2 1 0 2 3 3 3 3 3 2 2 1 2 2 2 2 2 2 1
2 3 5 7 6 6 6 6 5 5 6 5 4 3 2 2 3 3 2 2 1 0 0 1 3 4 3 3 3 3 2 2 2 2 2 2 2 2
3 2 2 3 4 3 3 4 4 4 4 4 4 3 3 3 2 2 2 3 3 2 1 0 1 1 2 3 3 3 3 2 2 2 2 2 3 3
4 3 4 5 6 6 6 5 5 5 5 5 4 5 5 5 3 2 3 3 3 3 3 2 2 1 1 2 4 4 3 3 2 2 2 2 3 3
4 4 5 6 5 5 5 5 5 5 5 5 5 5 5 4 4 4 4 3 3 3 3 3 3 3 3 3 3 3 4 2 1 2 3 3 4 4
4 4 5 5 5 5 6 5 5 4 4 5 5 5 5 5 5 5 5 5 4 3 3 3 4 5 6 4 3 2 4 4 3 3 2 2 3 4
5 4 4 4 5 5 5 6 6 6 5 5 5 6 5 5 5 5 5 6 5 4 5 6 5 5 2 1 1 2 2 4 5 3 3 1 2 2
5 5 4 4 4 5 5 5 5 6 6 6 6 6 5 6 6 6 6 5 5 5 5 3 2 3 3 4 5 4 3 2 3 5 6 6 3 4
5 5 4 4 4 4 4 5 6 6 6 6 6 6 6 6 5 5 6 6 5 5 4 3 2 2 3 3 4 3 4 3 1 2 3 6 8 9
Wind_Direction
175 168 162 173 160 159 150 150 145 151 189 209 186 219 128 101 96 82 73 88 84 80 75 70 64 60 58 59 58 56 53 52 54 55 54 52 51 51
170 161 162 163 160 154 156 149 138 143 164 196 192 178 157 133 117 96 90 99 91 86 80 77 70 64 61 61 59 58 54 52 53 53 54 51 50 49
179 169 176 164 160 165 157 150 142 132 139 165 133 130 127 128 106 91 80 62 76 91 90 84 79 73 68 66 64 62 59 55 54 53 54 53 52 51
188 176 184 171 166 167 163 164 157 148 141 147 139 132 142 151 134 130 121 108 82 92 94 90 86 80 75 72 71 66 62 56 53 52 52 54 52 50
189 189 190 168 173 171 166 163 157 146 132 141 146 134 122 136 112 113 109 72 115 100 93 84 82 83 84 79 77 71 65 58 52 50 49 50 49 46
192 193 190 182 181 173 168 165 153 138 133 137 138 135 134 138 130 130 103 12 58 88 80 80 67 59 71 82 84 81 71 62 55 52 49 48 47 44
190 194 193 184 179 173 168 165 155 148 145 145 148 139 154 159 178 169 155 152 343 53 71 24 30 11 357 6 78 96 88 77 66 59 51 46 45 44
195 199 197 185 184 181 173 167 164 162 163 160 165 176 189 183 163 160 145 143 230 240 141 259 53 287 283 293 321 141 140 112 84 64 52 44 43 42
194 190 194 188 175 176 173 169 173 174 169 167 173 187 185 185 167 165 174 175 194 188 139 208 257 255 257 259 222 207 198 160 135 117 63 39 28 26
192 192 187 183 177 168 160 159 171 184 185 178 183 189 184 178 177 176 172 151 123 171 151 183 216 245 267 273 264 229 217 210 188 156 46 8 20 29
199 194 184 183 179 165 159 163 171 195 194 180 172 169 167 167 158 137 139 144 184 220 182 170 197 210 272 282 276 241 230 241 245 241 243 305 0 33
208 200 192 186 179 170 170 169 178 190 169 163 162 168 169 171 168 167 166 161 165 208 202 169 177 149 263 290 296 277 255 276 275 280 288 286 271 75
203 207 202 187 182 179 177 180 184 171 167 162 159 156 153 165 178 178 173 168 169 201 189 161 164 164 179 241 293 263 222 258 268 274 274 268 243 161
206 208 197 185 182 180 181 182 169 155 152 152 158 172 179 185 186 182 181 180 182 192 178 161 162 171 165 186 247 269 250 237 223 244 256 276 262 244
208 201 189 185 180 182 187 177 163 159 159 167 185 195 192 180 158 146 139 129 94 99 153 164 158 161 165 183 204 209 237 257 214 223 234 230 233 232
193 186 178 174 172 175 177 178 176 177 175 183 188 180 154 152 165 161 157 152 128 327 346 167 171 163 174 193 187 205 200 220 232 225 225 241 248 232
158 151 152 158 174 181 183 185 182 178 184 177 172 170 171 174 182 170 158 154 169 188 206 302 90 134 186 178 192 216 213 225 226 210 202 244 255 242
158 185 189 190 193 192 192 192 192 193 191 183 180 182 184 186 185 175 167 175 192 201 199 191 153 85 19 303 221 214 218 226 225 205 194 219 261 258
185 202 199 197 199 196 195 195 197 197 186 183 186 189 187 186 183 188 188 191 204 207 204 185 175 169 195 248 273 214 203 216 202 209 214 215 242 258
205 206 210 203 200 197 196 197 196 186 182 186 186 188 187 186 188 193 196 200 205 206 204 199 200 200 208 218 228 249 210 197 196 219 232 239 260 278
211 212 214 210 206 204 200 196 193 193 192 190 192 193 192 190 197 201 201 203 200 202 213 220 219 205 175 125 231 261 255 222 205 202 197 211 272 284
210 213 214 212 209 208 202 194 193 195 195 198 199 197 196 196 201 201 200 200 204 209 219 221 167 156 174 204 229 242 255 264 244 230 217 200 194 219
211 211 212 210 208 206 203 198 198 201 200 201 202 200 197 201 203 201 203 204 203 205 205 197 181 185 202 212 228 241 243 244 244 254 258 253 246 248